[[{"header":{"parameterUnit":"m.s-1","parameterCategory":1,"la1":30.2991,"la2":30.254,"lo1":-89.0895,"lo2":-89.0444,"dy":0.0017,"dx":0.0017,"nx":28,"ny":28,"refTime":"2024-08-09T03:00:00:Z","depth":0,"parameterNumber":2,"parameterNumberName":"U-component_of_WINDS"},"data":[0,0,0,0,0,0,0,0,0,0,0,0,0,0,0,0,0,0,0,0,0,0,0,0,0,0,0,0,0,0,0,0,0,0,0,0,0,0,0,0,0,0,0,0,0,0,0,0,0,0,0,0,0,0,0,0,0,0,0.9202,0.9202,0,0.9184,0.9184,0.9184,0.9195,0.9195,0.9196,0.9197,0.9175,0.9174,0.9173,0,0,0,0,0,0,0,0,0,0,0,0,0,0.9243,0.9242,0.9202,0.9202,0.9201,0.9184,0.9184,0.9184,0.9195,0.9195,0.9196,0.9197,0.9175,0.9174,0.9173,0,0,0,0,0,0,0,0,0,0,0,0,0,0.9225,0.9242,0.9202,0.9205,0.9205,0.9184,0.9184,0.9183,0.9195,0.9196,0.9196,0.9197,0.9176,0.9174,0.9172,0.9146,0,0,0.9167,0.9167,0,0,0,0,0,0,0,0,0.9226,0.9224,0.9205,0.9205,0.9205,0.9193,0.919,0.9171,0.9194,0.9199,0.9197,0.9197,0.918,0.9178,0.9173,0.9145,0.9144,0.9167,0.9166,0.9166,0.9165,0,0,0,0,0,0,0,0.9227,0.9224,0.9195,0.9204,0.9205,0.9206,0.9205,0.9187,0.9185,0.9198,0.9199,0.9197,0.918,0.9174,0.9172,0.9144,0.9167,0.9166,0.9165,0.9164,0.9093,0.9092,0,0,0,0,0,0,0.9229,0.9225,0.9195,0.9194,0.9218,0.9205,0.9203,0.9196,0.9185,0.9184,0.9196,0.9198,0.9177,0.9174,0.9172,0.9139,0.9166,0.9164,0.9163,0.9094,0.9093,0.9092,0,0,0,0,0,0,0.923,0.9226,0.9196,0.921,0.9206,0.9204,0.9195,0.9195,0.9189,0.9184,0.9183,0.9191,0.9177,0.9174,0.9152,0.9138,0.9163,0.9162,0.9095,0.9094,0.9093,0.9074,0,0,0,0,0,0,0.9231,0.9226,0.9217,0.921,0.9206,0.9178,0.9194,0.9194,0.9187,0.9188,0.9178,0.9177,0.9178,0.9155,0.9151,0.9137,0.9161,0.9096,0.9095,0.9093,0.9076,0.9073,0.907,0,0,0,0,0,0.9232,0.9212,0.9216,0.9212,0.9194,0.9177,0.9175,0.9176,0.9186,0.9175,0.9172,0.9178,0.9141,0.9153,0.9148,0.9133,0.9097,0.9095,0.9093,0.9078,0.9073,0.907,0,0,0,0,0,0,0.9215,0.9211,0.9216,0.9193,0.9185,0.9179,0.9166,0.9171,0.916,0.9162,0.9164,0.9161,0.9139,0.9134,0.9147,0.9107,0.9121,0.9118,0.911,0.9106,0.9103,0.9103,0.9159,0,0,0,0,0,0.921,0.9197,0.9194,0.9173,0.917,0.9169,0.9162,0.9164,0.9156,0.9152,0.9147,0.9138,0.9125,0.9116,0.9103,0.9077,0.9074,0.9064,0.9061,0.9058,0.9055,0.9039,0.9035,0.9085,0.9085,0.9085,0,0,0.9196,0.9192,0.9184,0.917,0.9165,0.9151,0.9166,0.9151,0.914,0.9149,0.9129,0.9125,0.9115,0.9091,0.908,0.9087,0.9041,0.9056,0.9054,0.9051,0.9037,0.9032,0.9028,0.9084,0.9084,0.9084,0,0,0.9164,0.9161,0.9143,0.9138,0.913,0.913,0.9126,0.9119,0.9117,0.9097,0.9104,0.9091,0.9068,0.9061,0.9054,0.9021,0.9025,0.9017,0.8998,0.8983,0.8979,0.8976,0.8962,0.8957,0.9014,0.9014,0.9014,0,0.9148,0.9129,0.9133,0.9118,0.9111,0.9121,0.9102,0.9097,0.9085,0.9079,0.9087,0.9059,0.9053,0.9027,0.9019,0.9014,0.9008,0.9017,0.898,0.8976,0.8973,0.896,0.8955,0.9013,0.9013,0.9013,0.9013,0,0.9108,0.9095,0.9082,0.9071,0.9063,0.9046,0.9047,0.9038,0.9042,0.904,0.9019,0.9013,0.8999,0.8994,0.8996,0.8967,0.8972,0.898,0.8993,0.8967,0.8954,0.8949,0.9011,0.9012,0.9012,0.9012,0,0,0.9063,0.9057,0.9051,0.9046,0.9039,0.9028,0.9012,0.8999,0.8991,0.8983,0.8968,0.8949,0.8957,0.8949,0.8952,0.8939,0.8911,0.8948,0.8948,0.894,0.8877,0.8869,0.8863,0.8915,0.8914,0.8914,0.8877,0,0.9029,0.9001,0.9005,0.8978,0.8964,0.8975,0.896,0.8954,0.8952,0.894,0.8939,0.8925,0.8937,0.8932,0.892,0.8917,0.8898,0.892,0.8899,0.8898,0.8898,0.8857,0.8848,0.8814,0.8872,0.8872,0.8871,0,0.8985,0.8977,0.8948,0.8943,0.8937,0.8924,0.8913,0.8902,0.8895,0.8895,0.8887,0.8892,0.8874,0.889,0.8865,0.888,0.8872,0.887,0.8868,0.8864,0.8881,0.8849,0.8803,0.8797,0.8864,0.8864,0.8865,0,0.8952,0.8934,0.8914,0.891,0.8904,0.8894,0.8891,0.8885,0.8878,0.8868,0.8863,0.8851,0.8844,0.8834,0.8835,0.8847,0.8809,0.8825,0.8806,0.8806,0.8795,0.8795,0.8745,0.8795,0.8795,0.8795,0.8795,0,0.8912,0.8893,0.8899,0.8886,0.8866,0.8871,0.885,0.8849,0.8843,0.883,0.8839,0.8826,0.8829,0.8816,0.8817,0.8795,0.8792,0.879,0.879,0.8788,0.8788,0.8781,0.8782,0.8794,0.8794,0.8794,0.8795,0,0.887,0.8874,0.8852,0.8849,0.8848,0.8833,0.883,0.8818,0.8818,0.8801,0.8797,0.8797,0.8782,0.8784,0.8766,0.8767,0.8739,0.8743,0.8742,0.8741,0.8722,0.8723,0.8662,0.8654,0.8712,0.8712,0.8711,0,0.8843,0.8829,0.8825,0.8818,0.8814,0.8801,0.8794,0.88,0.8791,0.8783,0.8771,0.8757,0.8746,0.8722,0.8719,0.8706,0.8708,0.8689,0.8706,0.8704,0.8705,0.8705,0.8702,0.8684,0.8683,0.8683,0.8682,0,0.8794,0.8796,0.8786,0.8776,0.8767,0.8759,0.8752,0.8745,0.875,0.874,0.8725,0.8717,0.87,0.8686,0.8674,0.867,0.8675,0.8677,0.8672,0.8667,0.8666,0.8664,0.8729,0.8678,0.8678,0.8678,0.8679,0.8679,0.8757,0.8744,0.874,0.8728,0.8723,0.8717,0.8705,0.8705,0.8693,0.868,0.8685,0.8668,0.8661,0.8646,0.8641,0.8627,0.8634,0.8626,0.8624,0.8621,0.8618,0.8671,0.8625,0.8625,0.8625,0.8625,0.8625,0,0.8705,0.8704,0.8693,0.8683,0.8673,0.8683,0.8676,0.8666,0.8652,0.8646,0.8636,0.8618,0.8605,0.8603,0.8589,0.8578,0.8581,0.8574,0.8574,0.8572,0.8614,0.8618,0.8573,0.8573,0.8573,0.8573,0.8573,0.8573,0.8677,0.8657,0.8659,0.8636,0.8635,0.8619,0.8614,0.8607,0.8602,0.8583,0.8573,0.8572,0.8567,0.8554,0.8541,0.8541,0.8534,0.8526,0.8526,0.8564,0.8569,0.8574,0.8579,0.8525,0.8525,0.8486,0.8486,0.8485]},{"header":{"parameterUnit":"m.s-1","parameterCategory":1,"la1":30.2991,"la2":30.254,"lo1":-89.0895,"lo2":-89.0444,"dy":0.0017,"dx":0.0017,"nx":28,"ny":28,"refTime":"2024-08-09T03:00:00:Z","depth":0,"parameterNumber":3,"parameterNumberName":"V-component_of_WINDS"},"data":[0,0,0,0,0,0,0,0,0,0,0,0,0,0,0,0,0,0,0,0,0,0,0,0,0,0,0,0,0,0,0,0,0,0,0,0,0,0,0,0,0,0,0,0,0,0,0,0,0,0,0,0,0,0,0,0,0,0,-3.8501,-3.8501,0,-3.8577,-3.8578,-3.8579,-3.8521,-3.8518,-3.8516,-3.8513,-3.8589,-3.8593,-3.8597,0,0,0,0,0,0,0,0,0,0,0,0,0,-3.83,-3.8304,-3.85,-3.8501,-3.8502,-3.8577,-3.8578,-3.8579,-3.8521,-3.8518,-3.8515,-3.8512,-3.8587,-3.8592,-3.8597,0,0,0,0,0,0,0,0,0,0,0,0,0,-3.8383,-3.8305,-3.85,-3.8482,-3.8482,-3.8577,-3.8578,-3.858,-3.8522,-3.8518,-3.8514,-3.8511,-3.8585,-3.8592,-3.8598,-3.8714,0,0,-3.8618,-3.8621,0,0,0,0,0,0,0,0,-3.8378,-3.839,-3.8484,-3.8484,-3.8483,-3.8536,-3.8535,-3.8625,-3.8523,-3.8506,-3.8513,-3.8509,-3.8574,-3.8581,-3.8604,-3.8718,-3.8721,-3.8619,-3.8623,-3.8626,-3.8627,0,0,0,0,0,0,0,-3.8372,-3.8386,-3.8531,-3.8486,-3.8485,-3.8469,-3.8477,-3.8552,-3.856,-3.8508,-3.8503,-3.8514,-3.8573,-3.8597,-3.8605,-3.8722,-3.8619,-3.8624,-3.8628,-3.8631,-3.8934,-3.8938,0,0,0,0,0,0,-3.8369,-3.8382,-3.8528,-3.8533,-3.842,-3.8476,-3.8485,-3.8523,-3.8559,-3.8561,-3.8517,-3.8511,-3.8588,-3.8597,-3.8607,-3.8745,-3.8625,-3.8632,-3.8635,-3.893,-3.8935,-3.894,0,0,0,0,0,0,-3.8365,-3.8382,-3.8525,-3.8457,-3.8474,-3.8484,-3.8527,-3.8526,-3.8551,-3.8566,-3.8567,-3.8541,-3.8586,-3.8598,-3.8688,-3.8747,-3.8635,-3.864,-3.8925,-3.8932,-3.8937,-3.9022,0,0,0,0,0,0,-3.8359,-3.8381,-3.8427,-3.8458,-3.8478,-3.8606,-3.853,-3.853,-3.8563,-3.8555,-3.8589,-3.8591,-3.8584,-3.8679,-3.8695,-3.8754,-3.8646,-3.892,-3.8928,-3.8935,-3.9014,-3.903,-3.9044,0,0,0,0,0,-3.8352,-3.8447,-3.8429,-3.8447,-3.8534,-3.861,-3.8621,-3.8611,-3.8568,-3.8612,-3.8622,-3.859,-3.8738,-3.8688,-3.8706,-3.8768,-3.8916,-3.8926,-3.8935,-3.9007,-3.9027,-3.9044,0,0,0,0,0,0,-3.8421,-3.8451,-3.8431,-3.8539,-3.8573,-3.86,-3.8656,-3.8633,-3.8678,-3.8669,-3.8655,-3.8663,-3.8757,-3.8771,-3.8716,-3.8882,-3.882,-3.8833,-3.8869,-3.8888,-3.8903,-3.8897,-3.8651,0,0,0,0,0,-3.8449,-3.8509,-3.8531,-3.8624,-3.8642,-3.8646,-3.8679,-3.8668,-3.8702,-3.8715,-3.8732,-3.8764,-3.8818,-3.8854,-3.8904,-3.9016,-3.9022,-3.9067,-3.9082,-3.9094,-3.9106,-3.9165,-3.9185,-3.897,-3.897,-3.897,0,0,-3.8507,-3.853,-3.8569,-3.8638,-3.8663,-3.8724,-3.8658,-3.8726,-3.8771,-3.8725,-3.8811,-3.8825,-3.886,-3.8961,-3.9006,-3.8976,-3.9167,-3.9106,-3.9116,-3.9121,-3.9177,-3.9197,-3.9215,-3.8976,-3.8975,-3.8974,0,0,-3.8643,-3.8668,-3.8747,-3.8774,-3.8812,-3.8814,-3.8834,-3.8864,-3.8872,-3.8958,-3.8925,-3.8977,-3.9071,-3.9097,-3.9123,-3.9269,-3.924,-3.9286,-3.9365,-3.9423,-3.9439,-3.9454,-3.9506,-3.9525,-3.9297,-3.9297,-3.9297,0,-3.871,-3.8802,-3.8791,-3.8861,-3.8892,-3.8855,-3.8935,-3.896,-3.9013,-3.9034,-3.9,-3.9116,-3.9137,-3.9243,-3.9279,-3.9301,-3.9322,-3.9282,-3.9438,-3.9453,-3.9467,-3.9516,-3.9535,-3.9302,-3.9302,-3.9301,-3.9301,0,-3.8882,-3.8946,-3.9006,-3.9059,-3.9096,-3.9171,-3.917,-3.9209,-3.9196,-3.9201,-3.9289,-3.9313,-3.9367,-3.9392,-3.9379,-3.9496,-3.9476,-3.944,-3.9378,-3.9493,-3.9538,-3.9557,-3.931,-3.9308,-3.9306,-3.9305,0,0,-3.9064,-3.911,-3.9132,-3.9155,-3.9194,-3.9243,-3.9316,-3.937,-3.9403,-3.944,-3.95,-3.958,-3.9547,-3.9576,-3.9565,-3.9616,-3.9729,-3.9574,-3.9574,-3.9601,-3.9859,-3.9886,-3.9908,-3.9711,-3.9714,-3.9717,-3.9856,0,-3.9202,-3.933,-3.9322,-3.9441,-3.95,-3.9465,-3.9527,-3.9558,-3.9565,-3.9614,-3.9621,-3.9678,-3.963,-3.9648,-3.9696,-3.9706,-3.9781,-3.9695,-3.9765,-3.9768,-3.9757,-3.9932,-3.9961,-4.0091,-3.9874,-3.9877,-3.9879,0,-3.9381,-3.9425,-3.9551,-3.9581,-3.9605,-3.9662,-3.9711,-3.9759,-3.9792,-3.9793,-3.9826,-3.9807,-3.9879,-3.9815,-3.9913,-3.9855,-3.9882,-3.9891,-3.9896,-3.9902,-3.983,-3.9942,-4.0132,-4.0152,-3.9907,-3.9905,-3.9903,0,-3.9501,-3.9592,-3.9678,-3.9699,-3.9737,-3.9778,-3.9795,-3.9824,-3.9857,-3.9899,-3.992,-3.9969,-3.9996,-4.0034,-4.0029,-3.9983,-4.0128,-4.0064,-4.013,-4.0131,-4.0163,-4.0161,-4.0359,-4.0181,-4.0181,-4.0181,-4.018,0,-3.9656,-3.9734,-3.9733,-3.9786,-3.9872,-3.9861,-3.9946,-3.9959,-3.9985,-4.0039,-4.0012,-4.0063,-4.0052,-4.0103,-4.0098,-4.018,-4.0192,-4.0194,-4.0192,-4.0197,-4.0197,-4.0215,-4.0206,-4.0186,-4.0185,-4.0184,-4.0183,0,-3.9804,-3.9807,-3.9899,-3.9927,-3.9936,-3.9998,-4.0021,-4.0071,-4.0075,-4.0144,-4.016,-4.0167,-4.0225,-4.0223,-4.0288,-4.0285,-4.0385,-4.0373,-4.0375,-4.0372,-4.0438,-4.0432,-4.0655,-4.0684,-4.0488,-4.049,-4.0491,0,-3.9903,-3.9962,-3.9997,-4.0032,-4.0052,-4.0108,-4.0142,-4.0133,-4.0169,-4.0211,-4.0255,-4.0311,-4.0355,-4.0449,-4.0459,-4.0509,-4.0497,-4.0572,-4.0504,-4.0507,-4.0498,-4.0494,-4.05,-4.0585,-4.0587,-4.0589,-4.0591,0,-4.0078,-4.0076,-4.0126,-4.0177,-4.0218,-4.0257,-4.0293,-4.0323,-4.0318,-4.0359,-4.0419,-4.0453,-4.052,-4.0576,-4.0623,-4.0639,-4.0614,-4.0612,-4.063,-4.0635,-4.0634,-4.0635,-4.041,-4.0607,-4.0605,-4.0604,-4.0603,-4.0602,-4.0204,-4.0255,-4.0287,-4.0344,-4.037,-4.0404,-4.0452,-4.0463,-4.0513,-4.0568,-4.0559,-4.0626,-4.0656,-4.0718,-4.0738,-4.0789,-4.0762,-4.0789,-4.0795,-4.0802,-4.0809,-4.0626,-4.0798,-4.0797,-4.0797,-4.0796,-4.0796,0,-4.0377,-4.0396,-4.0448,-4.05,-4.0544,-4.0518,-4.0556,-4.0594,-4.0653,-4.0684,-4.0729,-4.0796,-4.085,-4.0864,-4.0915,-4.0953,-4.0943,-4.0967,-4.0964,-4.0968,-4.083,-4.0809,-4.0974,-4.0974,-4.0974,-4.0974,-4.0974,-4.0974,-4.0473,-4.0557,-4.0559,-4.0656,-4.0674,-4.074,-4.0764,-4.0795,-4.0819,-4.0897,-4.0942,-4.0951,-4.0975,-4.1027,-4.1074,-4.1077,-4.1097,-4.1126,-4.1124,-4.0995,-4.0977,-4.096,-4.0941,-4.113,-4.113,-4.1257,-4.1258,-4.1259]}]]